Walla Walla, WA
on Saturday, November 17, 2012

Saturday
Previous Day Next Day
Daily Summary
 ActualAverage (KPDT)Record (KPDT)
Temperature
Mean Temperature °F 41°F  
Max Temperature 48°F 48°F 75°F (1908)
Min Temperature 39°F 33°F 9°F (1916)
Degree Days
Heating Degree Days 22 24  
Month to date heating degree days 363  
Since 1 July heating degree days 905  
Cooling Degree Days 0 0  
Month to date cooling degree days 0  
Year to date cooling degree days 636  
Moisture
Dew Point 40°F   
Average Humidity 95    
Maximum Humidity 100    
Minimum Humidity 80    
Precipitation
Precipitation 0.32 in 0.05 in 0.38 in (1991)
Month to date precipitation 0.85  
Year to date precipitation 10.52  
Snow
Snow 0.00 in 0.00 in 0.30 in (1955)
Month to date snowfall 0.4  
Year to date snowfall 8.2  
Since 1 July snowfall 0.5  
Snow Depth in   
Wind
Wind Speed 5 mph   
Max Wind Speed 22 mph   
Max Gust Speed 26 mph   
Visibility 3 miles   
Events Fog , Rain   

Key: T is trace of precipitation, MM is missing value
Source: NWS Daily Summary
Time(PST)TemperatureDew PointHumidity Pressure Visibility Wind DirectionWind SpeedGust SpeedPrecipitationEvents Conditions
12:36 AM 39.2°F 39.2°F 100% 29.89 in 2.5 miles NE 3.5 mph - N/A   Overcast
12:53 AM 39.9°F 39.0°F 97% 29.91 in 2.5 miles Calm Calm - N/A   Overcast
1:07 AM 39.2°F 39.2°F 100% 29.88 in 1.2 miles Calm Calm - N/A   Overcast
1:27 AM 39.2°F 39.2°F 100% 29.87 in 0.8 miles Calm Calm - N/A   Mist
1:53 AM 39.9°F 39.0°F 97% 29.88 in 0.5 miles Calm Calm - N/A Fog Fog
2:20 AM 39.2°F 39.2°F 100% 29.86 in 1.2 miles Calm Calm - N/A   Overcast
2:39 AM 39.2°F 39.2°F 100% 29.85 in 0.8 miles Calm Calm - N/A   Mist
2:53 AM 39.9°F 39.0°F 97% 29.86 in 0.2 miles Calm Calm - N/A Fog Fog
3:53 AM 39.9°F 39.0°F 97% 29.85 in 0.2 miles Calm Calm - N/A Fog Fog
4:53 AM 39.9°F 39.0°F 97% 29.83 in 0.2 miles Calm Calm - N/A Fog Fog
5:53 AM 39.9°F 39.0°F 97% 29.80 in 0.2 miles North 3.5 mph - 0.00 in Fog Fog
6:07 AM 39.2°F 39.2°F 100% 29.77 in 0.2 miles NNW 3.5 mph - N/A Fog Fog
6:53 AM 39.0°F 39.0°F 100% 29.79 in 0.2 miles WSW 3.5 mph - N/A Fog Fog
7:53 AM 39.9°F 39.0°F 97% 29.78 in 0.2 miles SW 4.6 mph - 0.00 in Fog Fog
8:53 AM 39.9°F 39.0°F 97% 29.76 in 0.2 miles Calm Calm - N/A Fog Fog
9:53 AM 41.0°F 39.9°F 96% 29.72 in 0.2 miles NE 5.8 mph - N/A Fog Fog
10:04 AM 42.8°F 41.0°F 93% 29.69 in 1.0 miles NE 5.8 mph - N/A   Mostly Cloudy
10:18 AM 42.8°F 42.8°F 100% 29.68 in 3.0 miles NNE 4.6 mph - N/A   Mostly Cloudy
10:32 AM 44.6°F 42.8°F 93% 29.67 in 6.0 miles North 3.5 mph - N/A   Scattered Clouds
10:53 AM 44.1°F 42.1°F 93% 29.68 in 6.0 miles NW 3.5 mph - N/A   Mostly Cloudy
11:53 AM 45.0°F 42.1°F 90% 29.65 in 4.0 miles ENE 5.8 mph - 0.02 in Rain Light Rain
12:53 PM 48.0°F 44.1°F 86% 29.63 in 10.0 miles North 4.6 mph - 0.01 in Rain Light Rain
1:53 PM 45.0°F 44.1°F 97% 29.62 in 3.0 miles West 4.6 mph - 0.00 in   Overcast
2:53 PM 46.0°F 44.1°F 93% 29.60 in 4.0 miles NW 4.6 mph - N/A   Overcast
3:53 PM 46.0°F 43.0°F 89% 29.59 in 4.0 miles Calm Calm - N/A   Overcast
4:53 PM 43.0°F 42.1°F 97% 29.57 in 2.5 miles WSW 4.6 mph - N/A   Mostly Cloudy
5:53 PM 43.0°F 42.1°F 97% 29.56 in 2.0 miles North 3.5 mph - N/A   Mostly Cloudy
6:12 PM 42.8°F 41.0°F 93% 29.60 in 2.5 miles WSW 20.7 mph 26.5 mph N/A   Overcast
6:18 PM 42.8°F 41.0°F 93% 29.61 in 2.5 miles West 21.9 mph - N/A   Overcast
6:25 PM 42.8°F 41.0°F 93% 29.63 in 3.0 miles West 19.6 mph - 0.00 in Rain Light Rain
6:44 PM 42.8°F 41.0°F 93% 29.67 in 4.0 miles SSW 16.1 mph 24.2 mph 0.00 in Rain Light Rain
6:53 PM 43.0°F 41.0°F 93% 29.70 in 4.0 miles South 12.7 mph 23.0 mph 0.00 in Rain Light Rain
7:09 PM 42.8°F 41.0°F 93% 29.70 in 2.0 miles South 15.0 mph - 0.03 in Rain Rain
7:33 PM 42.8°F 41.0°F 93% 29.71 in 1.8 miles South 18.4 mph 25.3 mph 0.09 in Rain Rain
7:41 PM 42.8°F 41.0°F 93% 29.71 in 2.0 miles South 17.3 mph 23.0 mph 0.10 in Rain Rain
7:53 PM 43.0°F 41.0°F 93% 29.73 in 2.5 miles South 19.6 mph - 0.12 in Rain Rain
8:03 PM 42.8°F 41.0°F 93% 29.73 in 3.0 miles South 19.6 mph - 0.02 in Rain Rain
8:53 PM 43.0°F 39.9°F 89% 29.77 in 6.0 miles South 17.3 mph - 0.08 in Rain Light Rain
9:53 PM 42.1°F 39.0°F 89% 29.80 in 5.0 miles SSW 18.4 mph - 0.09 in Rain Rain
10:30 PM 41.0°F 37.4°F 87% 29.79 in 10.0 miles South 17.3 mph - 0.04 in Rain Light Rain
11:53 PM 43.0°F 37.0°F 80% 29.83 in 10.0 miles South 16.1 mph - 0.00 in   Overcast
Moon Phase
Nov. 17 Nov. 20 Nov. 28 Dec. 06 Dec. 13
Sunrise:06:57 AM (PST) Moon Rise:10:45 AM (PST)11/17
Sunset:04:18 PM (PST) Moon Set:08:35 PM (PST)11/17

Copyright © 2014 The Weather Underground, Inc.